Weather in Kumkurgan

Uzbekistan     37°49′31″N   67°35′30″E
temp.,
°C
wind,
m/s
gust,
m/s
humid.,
%
clouds,
%
prec.,
mm/h
press.,
hPa
HPBL,
m
18 april, sun
sun1823:00+19ne334244 0.0 101674
02:00+17nne114869 0.0 101611
05:00+16sw344385 0.0 101854
08:00+18sw45395 0.0 1020384
11:00+23wsw12275 0.0 10202069
14:00+25se122342 0.0 10192931
17:00+25ene332341 0.0 10172882
20:00+20nne9124229 0.0 1019338
19 april, mon
mon1923:00+18ne812455 0.0 1019303
02:00+17ne61149100 0.0 1018236
05:00+16ne610510 0.0 1017190
08:00+19ne79390 0.0 1016317
11:00+25ne54255 0.0 10141567
14:00+27ne22195 0.0 10112132
17:00+27ne12175 0.0 10092071
20:00+22ene12250 0.0 101015
20 april, tue
tue2023:00+19ene11335 0.0 101111
02:00+18nnw1134100 0.0 101011
05:00+17ne3340100 0.0 101120
08:00+20ene2234100 0.0 1012151
11:00+25sw2222100 0.0 10121196
14:00+27sw231898 0.0 10102936
17:00+27wnw662122 0.0 10092074
20:00+23nw510279 0.0 1010279
21 april, wed
wed2123:00+19ne34390 0.0 101258
02:00+17ne22472 0.0 101227
05:00+16ne2250100 0.0 101316
08:00+19ne334149 0.0 1014238
11:00+25s13285 0.0 10141271
14:00+28wsw772046 0.0 10123268
17:00+27w782157 0.0 10103090
20:00+22nw81232100 0.0 1012413
22 april, thu
thu2223:00+19nne2340100 0.0 101246
02:00+17ne4554100 0.0 101395
05:00+15ne2254100 0.0 101432
08:00+18ese234676 0.0 1016326
11:00+22s113355 0.0 10171257
14:00+26wnw03200 0.0 10162485
17:00+26ese23181 0.0 10152921
20:00+22s352297 0.0 101781